Regional Weather Roundup
Issued by NWS

Home | Current Version | Previous Version | Text Only | Print | Product List | Glossary On
Versions: 1 2 3 4 5 6 7 8 9 10 11 12 13 14 15 16 17 18 19 20 21 22 23 24 25 26 27 28 29 30 31 32 33 34 35 36 37 38 39 40 41 42 43 44 45 46 47 48 49 50
969
ASUS44 KFWD 222215
RWRTX
NORTH TEXAS HOURLY WEATHER ROUNDUP
NATIONAL WEATHER SERVICE FORT WORTH TX
500 PM CDT SAT JUL 22 2017

NOTE: "FAIR" INDICATES FEW OR NO CLOUDS BELOW 12,000 FEET WITH NO
SIGNIFICANT WEATHER AND/OR OBSTRUCTIONS TO VISIBILITY.

TXZ118-119-222300-
DALLAS/FORT WORTH METROPLEX

CITY           SKY/WX    TMP DP  RH WIND       PRES   REMARKS
DFW AIRPORT    MOSUNNY   99  70  38 S9        29.84F HX 106
DALLAS LOVE    MOSUNNY   98  67  36 S10       29.85F HX 102
FTW MEACHAM    SUNNY     99  70  38 S13       29.84F HX 106
DAL-EXECUTIVE  SUNNY     99  69  37 SE8       29.85F HX 105
FTW-ALLIANCE   PTSUNNY  100  70  37 S7        29.84F HX 107
FTW-NAS-JRB    MOSUNNY  101  66  31 S6        29.85F HX 105
FTW-SPINKS     MOSUNNY  100  66  32 SE8       29.88F HX 104
ARLINGTON      SUNNY     99  70  38 S8        29.85F HX 106
GRAND PRAIRIE  SUNNY     99  64  32 MISG      29.86F HX 101
ADDISON        MOSUNNY   93  72  49 S12G20    29.87F HX 100
MESQUITE       MOSUNNY   97  70  41 SE8       29.87F HX 103
LANCASTER      MOSUNNY   97  69  40 SE9       29.87F HX 102
$$

TXZ091>094-102>105-117-120-121-131>134-222300-
NORTH CENTRAL TEXAS

CITY           SKY/WX    TMP DP  RH WIND       PRES   REMARKS
SHRMAN/DENISON MOSUNNY   96  69  41 SE9       29.86F HX 101
GAINESVILLE    MOSUNNY   98  69  39 SE12      29.87F HX 104
BOWIE          MOSUNNY   89  67  47 SE3       29.86F HX  92
BRIDGEPORT     SUNNY     96  68  39 CALM      29.87F HX 100
DECATUR        LGT RAIN  86  73  64 S12         N/A  HX  93
DENTON         SUNNY     99  71  40 S13       29.83F HX 107
MCKINNEY       SUNNY     97  75  49 SE10      29.86F HX 109
BONHAM         MOSUNNY   97  70  41 S6        29.87F HX 103
GREENVILLE     MOSUNNY  100  70  37 S6        29.88F HX 107
ROCKWALL       SUNNY     96  73  46 S10G18    29.87F HX 105
TERRELL        MOSUNNY   97  71  42 SE9       29.88F HX 104
WAXAHACHIE     SUNNY     98  67  36 S3        29.88F HX 102
CLEBURNE       SUNNY     99  68  36 S10G17    29.88F HX 104
GRANBURY       MOSUNNY  102  63  28 SE8       29.86F HX 104
$$

TXZ083>090-098>101-113>116-127>130-139>142-154-155-222300-
WESTERN NORTH TEXAS

CITY           SKY/WX    TMP DP  RH WIND       PRES   REMARKS
WICHITA FALLS  SUNNY    102  62  26 VRB5      29.82F HX 104
WF-KICKAPOO    MOSUNNY  104  63  25 SE8       29.85F HX 106
VERNON         SUNNY    103  48  15 S3G16     29.84F HX 100
ABILENE        SUNNY     99  60  27 S10       29.88F HX  99
ABILENE-DYESS  SUNNY    102  61  25 S14       29.87F HX 103
GRAHAM         MOSUNNY   99  64  31 SE10G16   29.83F HX 101
BRECKENRIDGE   CLOUDY   102  57  22 SE8       29.85F HX 101
CISCO          SUNNY     99  63  30 S10       29.91S HX 100
EASTLAND       SUNNY     99  64  31 SE7       29.89F HX 102
RANGER         SUNNY     98  63  31 S8        29.90F HX  99
MINERAL WELLS  CLOUDY    90  68  48 SW3       29.84F HX  94
STEPHENVILLE   MOSUNNY   99  62  29 SE6       29.91F HX 100
COMANCHE       SUNNY    100  65  31 SE10      29.90F HX 103
BROWNWOOD      RAIN      99  63  30 SE10G18   29.89F HX 100
COLEMAN        MOSUNNY   99  58  25 SE8       29.89F HX  98
$$

TXZ143>147-156>162-174-175-222300-
CENTRAL TEXAS

CITY           SKY/WX    TMP DP  RH WIND       PRES   REMARKS
WACO           SUNNY    100  65  31 S6        29.86F HX 103
WACO-TSTC      MOSUNNY   99  64  32 SE8       29.87F HX 101
WACO-MCGREGOR  SUNNY    100  67  33 E8        29.87F HX 105
HILLSBORO      SUNNY     99  69  37 SE7       29.88F HX 104
CORSICANA      SUNNY     98  69  38 SE7       29.89F HX 104
MEXIA          SUNNY     98  67  36 SE9       29.87F HX 102
HEARNE         MOSUNNY   99  69  38 SE9       29.87F HX 105
CAMERON        MOSUNNY  101  65  31 W6        29.86F HX 104
TEMPLE         SUNNY     99  65  32 E5        29.88F HX 102
KILLEEN        MOSUNNY   98  62  29 E6        29.87F HX  99
FORT HOOD      MOSUNNY  100  63  29 SE8       29.85F HX 102
HAMILTON       MOSUNNY  100  62  29 SE7       29.90F HX 101
LAMPASAS       SUNNY     98  63  31 SE8       29.89F HX 100
$$

TXZ095>097-106>112-122>126-135>138-148>153-164>167-222300-
EAST TEXAS

CITY           SKY/WX    TMP DP  RH WIND       PRES   REMARKS
PARIS            N/A     96  73  47 SE5         N/A  HX 105
SULPHUR SPRNGS SUNNY     96  67  38 SE5       29.89F HX 100
MOUNT PLEASANT SUNNY     94  68  42 CALM      29.89F HX  99
GILMER         MOSUNNY   94  71  46 SE6       29.89F HX 100
MINEOLA        SUNNY     95  70  43 W5        29.88F HX 101
TYLER          PTSUNNY   96  69  41 MISG      29.89F HX 102
LONGVIEW       MOSUNNY   95  72  47 S8        29.89F HX 103
MARSHALL         N/A     93  69  45 SE3       29.91F HX  98
ATHENS         PTSUNNY   97  68  38 S6        29.88F HX 101
PALESTINE      PTSUNNY   91  73  54 SE5       29.90F HX  99
JACKSONVILLE   SUNNY     94  70  45 SW5       29.93F HX 100
HENDERSON      SUNNY     93  71  48 W3        29.91F HX  99
CENTER         HAZE      94  75  53 S6        29.92S VSB 1   HX 105
NACOGDOCHES    SUNNY     93  73  52 SE7       29.88F HX 102
LUFKIN         MOSUNNY   94  71  47 VRB6      29.91S HX 101
$$

SUPPLEMENTAL OBSERVATIONS (NWS FORT WORTH AREA)

CITY           SKY/WX    TMP DP  RH WIND       PRES   REMARKS
DENISON DAM      N/A     97  68  38 SE7         N/A  HX 101
CADDO GRASSLND   N/A     99  70  39 S5          N/A  HX 105
PAT MAYSE LAKE   N/A     93  70  46 SE7         N/A  HX  99
GREENVILLE       N/A     99  66  34 S6          N/A  HX 102
CEDAR HILL       N/A    100  66  32 S7          N/A  HX 104
LBJ GRASSLAND    N/A     97  72  44 SE9         N/A  HX 105
POSSUM KINGDOM   N/A     93  63  36 SE9G21      N/A  HX  94
GRANBURY         N/A    102  64  29 SE9         N/A  HX 105
COMANCHE         N/A    100  63  28 E8          N/A  HX 102
MCGREGOR         N/A    100  63  28 SE7         N/A  HX 102
TEMPLE           N/A    100  63  28 SE8         N/A  HX 102
LAKE LIMESTONE   N/A     99  66  34 SE6         N/A  HX 102
ATHENS           N/A     99  66  34 S5          N/A  HX 102
$$

SUPPLEMENTAL OBSERVATIONS (NWS NORMAN AREA)

CITY           SKY/WX    TMP DP  RH WIND       PRES   REMARKS
GOODLETT         N/A    104  53  18 S15       29.84F HX 102
ODELL            N/A    103  59  23 SE9       29.85F HX 103
CROWELL          N/A    105  58  21 S7        29.85S HX 105
KNOX CITY        N/A    104  55  19 SE10      29.85F HX 103
SEYMOUR          N/A    104  55  19 SE7G17    29.85F HX 102
MILLERS CREEK    N/A    102  63  27 S9          N/A  HX 104
$$

SUPPLEMENTAL OBSERVATIONS (NWS SAN ANGELO AREA)

CITY           SKY/WX    TMP DP  RH WIND       PRES   REMARKS
WEINERT          N/A    102  62  26 S12       29.86F HX 104
HASKELL          N/A     99  53  21 SE8       29.86F HX  97
THROCKMORTON     N/A    102  65  29 S7        29.87F HX 106
STAMFORD         N/A    102  60  24 SE5       29.87F HX 102
CLYDE            N/A     99  63  30 S9        29.92F HX 101
HAMBY            N/A    102  59  24 SE12        N/A  HX 102
IVIE RESERVOIR   N/A     99  57  25 SE8G16      N/A  HX  97
COLORADO BEND    N/A     97  57  26 SE8         N/A  HX  95
$$

SUPPLEMENTAL OBSERVATIONS (NWS SHREVEPORT AREA)

CITY           SKY/WX    TMP DP  RH WIND       PRES   REMARKS
CLARKSVILLE      N/A     97  70  41 S6          N/A  HX 103
TEXARKANA        N/A     97  73  46 S1          N/A  HX 107
LINDEN           N/A     97  72  44 E2          N/A  HX 105
CADDO LAKE       N/A     99  70  39 SW3         N/A  HX 105
GILMER           N/A     97  70  41 SW3         N/A  HX 103
HENDERSON        N/A     97  72  44 SW3         N/A  HX 105
LUFKIN           N/A     93  70  46 MISG        N/A  HX  99
N SABINE NF      N/A     93  75  55 MISG        N/A  HX 104
S SABINE NF      N/A     84  72  65 S2G13       N/A
$$

SUPPLEMENTAL OBSERVATIONS ARE A COLLECTION OF AUTOMATED INSTRUMENTS
THAT ARE MAINTAINED BY A VARIETY OF FEDERAL AND STATE AGENCIES.
CERTAIN ELEMENTS...SUCH AS HUMIDITY VALUES AND SUSTAINED WIND
SPEEDS...MAY BE APPROXIMATED.





USA.gov is the U.S. government's official web portal to all federal, state and local government web resources and services.